KOMPSAT

导读

KOMPSAT-1(阿里郎1号)是韩国首颗多用途对地观测卫星,由韩国航空航天研究院研制,于1999年12月21日发射升空,运行于685公里高度的太阳同步轨道。卫星发射质量约510千克,设计寿命3年,搭载了CCD成像系统、海洋多光谱扫描仪及空间物理探测器,可完成韩国国土测绘、海洋水色观测及电离层环境监测任务,最终于2008年1月正式失效,标志着韩国自主航天对地观测实现零的突破。

Basic Information
目录编号:
26032
目录名称:
KOMPSAT
国际标识:
1999-070A
轨道中心:
EARTH
卫星名称:
KOMPSAT
卫星全名:
--
卫星状态:
在轨 (已飞行9763 天)
发射日期:
1999-12-21 UTC
国别 :
韩国 (KR)
星等 :
--
This satellite is enrolled in the Space Conjunction Data Service (SCDS) and the current flight risk assessment level is: No High Risk
Orbit Information
数据来源 国际轨道数据 AOE轨道数据
星历时间 2026-09-13T05:57:17+0800
8小时前
查看轨道信息
2026-09-11T14:00:00+0800
2天前
查看轨道信息
半长轴 7017.335km 7017.347km
偏心率 0.0003753 0.0003903
轨道倾角 98.310° 98.311°
近地点辐角 5.248° 9.637°
升交点赤经 70.173° 68.461°
平近点角 354.876° 144.547°
近地点 636.564km 636.471km
远地点 641.832km 641.949km
周期 97.503分钟 97.503分钟
每日圈数 14.768777 14.768739
Detailed Information
使用方式:
暂无
2D Orbit Map
3D Orbit Map
Orbit Altitude Analysis Chart
Orbit Inclination Analysis Chart
Orbit Comprehensive Analysis Chart
View Comprehensive Chart
Miss Distance Evolution Trend with All Objects
Collision Probability Evolution Trend with All Objects